DW8795 Weather Reports


Display with metric or nautical units.
time (UTC)temp
F
wind
direction
speed
MPH
gust
MPH
rain 1hr
in
rain 24hr
in
rain mn
in
humidity
%
barometer
mb
20260505003004 63 133 0.0 6.0 0.00 0.00 0.00 60 1010.6
20260505001508 64 183 1.0 4.0 0.00 0.00 0.00 59 1010.5
20260505000015 64 104 0.0 3.0 0.00 0.00 0.00 58 1010.4
20260504234518 65 155 0.0 3.0 0.00 0.00 0.00 57 1010.6
20260504233026 66 112 0.0 6.0 0.00 0.00 0.00 53 1010.4
20260504231506 67 118 0.0 4.0 0.00 0.00 0.00 51 1010.4
20260504230028 68 205 1.0 2.0 0.00 0.00 0.00 49 1010.4
20260504224532 68 83 0.0 5.0 0.00 0.00 0.00 47 1010.4
20260504223023 69 174 2.0 8.0 0.00 0.00 0.00 46 1010.4
20260504221504 69 100 2.0 7.0 0.00 0.00 0.00 43 1010.3
20260504220008 70 156 2.0 10.0 0.00 0.00 0.00 43 1010.4
20260504214528 70 210 1.0 8.0 0.00 0.00 0.00 42 1010.4
20260504213023 71 145 2.0 7.0 0.00 0.00 0.00 41 1010.4
20260504211523 71 137 1.0 7.0 0.00 0.00 0.00 40 1010.5
20260504210027 71 91 2.0 6.0 0.00 0.00 0.00 40 1010.7
20260504204511 71 164 4.0 8.0 0.00 0.00 0.00 41 1010.9
20260504203017 71 211 1.0 5.0 0.00 0.00 0.00 41 1010.9
20260504201522 71 172 2.0 9.0 0.00 0.00 0.00 39 1011.1
20260504200024 71 226 2.0 6.0 0.00 0.00 0.00 39 1011.4
20260504194525 71 123 1.0 7.0 0.00 0.00 0.00 42 1011.6
20260504193011 70 163 3.0 13.0 0.00 0.00 0.00 40 1011.9
20260504191520 72 148 3.0 8.0 0.00 0.00 0.00 41 1012.1
20260504190021 72 154 2.0 9.0 0.00 0.00 0.00 38 1012.3
20260504184534 72 244 2.0 6.0 0.00 0.00 0.00 40 1012.5
20260504183033 72 172 3.0 8.0 0.00 0.00 0.00 39 1012.4
20260504181513 71 158 2.0 8.0 0.00 0.00 0.00 40 1012.5
20260504180020 72 242 3.0 7.0 0.00 0.00 0.00 39 1012.8
20260504174522 71 174 1.0 7.0 0.00 0.00 0.00 44 1013.0
20260504173025 72 195 1.0 5.0 0.00 0.00 0.00 42 1013.1
20260504171512 72 124 2.0 4.0 0.00 0.00 0.00 43 1013.2
20260504081535 35 155 0.0 0.0 0.00 0.00 0.00 15 1016.2
20260504050020 37 155 0.0 0.0 0.00 0.00 0.00 66 1016.5
20260504044524 37 155 0.0 0.0 0.00 0.00 0.00 74 1016.4
20260504043009 37 155 0.0 0.0 0.00 0.00 0.00 75 1016.2
20260504041509 38 155 0.0 0.0 0.00 0.00 0.00 79 1016.1
20260504040016 38 155 0.0 0.0 0.00 0.00 0.00 81 1016.1
20260504034522 39 155 0.0 0.0 0.00 0.00 0.00 82 1016.0
20260504033003 39 155 0.0 0.0 0.00 0.00 0.00 83 1015.8
20260504031511 40 155 0.0 0.0 0.00 0.00 0.00 83 1015.7
20260504030015 40 155 0.0 0.0 0.00 0.00 0.00 83 1015.7
20260504024516 41 155 0.0 0.0 0.00 0.00 0.00 82 1015.7
20260504023022 41 155 0.0 0.0 0.00 0.00 0.00 81 1015.6
20260504021523 42 155 0.0 0.0 0.00 0.00 0.00 78 1015.6
20260504020007 43 155 0.0 0.0 0.00 0.00 0.00 76 1015.6
20260504014511 44 155 0.0 0.0 0.00 0.00 0.00 72 1015.5
20260504013033 45 155 0.0 0.0 0.00 0.00 0.00 69 1015.5
20260504011522 46 155 0.0 0.0 0.00 0.00 0.00 66 1015.4
20260504010025 47 155 0.0 0.0 0.00 0.00 0.00 62 1015.2
20260504004538 49 155 0.0 0.0 0.00 0.00 0.00 57 1015.1